LiveATC.Net - Listen to live air traffic control over the Internet!


ICAO: SAEZ  IATA: EZE   Airport: Ministro Pistarini International Airport
City: Buenos Aires
Country: Argentina   Continent: South America
SAEZ METAR Weather: SAEZ 270930Z 16005KT 9999 OVC003 10/09 Q1027
SAEZ Flight Activity (FlightAware)
SAEZ Tower
Feed Status: DOWN
Last heard on: 2016-05-06 00:01:03 (21 days 10 hours 27 minutes ago)
SAEZ Tower Audio Archives
FacilityFrequency
Ezeiza Tower118.600


NOTICE

Unauthorized use prohibited. See LiveATC.net Terms of Service


Find LiveATC Audio Streams


Airport/ARTCC Code

Frequency
(e.g., 124.400, 128.75)
Site-wide search

Browse LiveATC Feeds
LiveATC Coverage Map
Top 50 LiveATC Feeds
Bad Weather Areas

LiveATC FAQ
Offer a LiveATC Feed
Contact LiveATC.net
Press Inquiries

LiveATC on iPhone
LiveATC on Android

Windows Phone
Windows 8/10

LiveATC Mobile
(Mobile browser)

ATC Audio Archives
Interesting Recordings

LiveATC Forums


Home Page
About LiveATC.net
Make a Donation
LiveATC Store

Terms of Use
Privacy Policy

Canadian Air Freqs

AIRMETs/SIGMETs

FAA Airport Status
Nat'l Airspace Status
Arrival Demand Charts


Server Software By:
Icecast.org
Liquidsoap